Regional Weather Roundup
Issued by NWS

Home | Current Version | Previous Version | Graphics & Text | Print | Product List | Glossary On
Versions: 1 2 3 4 5 6 7 8 9 10 11 12 13 14 15 16 17 18 19 20 21 22 23 24 25 26 27 28 29 30 31 32 33 34 35 36 37 38 39 40 41 42 43 44 45 46 47 48 49 50
000
ASUS43 KFSD 290610
RWRSD

WEATHER ROUNDUP FOR SOUTH DAKOTA
NATIONAL WEATHER SERVICE SIOUX FALLS SD
100 AM CDT WED JUL 29 2015

NOTE: "FAIR" INDICATES FEW OR NO CLOUDS BELOW 12,000 FEET WITH NO
SIGNIFICANT WEATHER AND/OR OBSTRUCTIONS TO VISIBILITY.


SDZ001>005-009-010-012>017-290700-
NORTHWEST AND NORTH CENTRAL SOUTH DAKOTA

CITY           SKY/WX    TMP DP  RH WIND       PRES   REMARKS
BUFFALO          N/A     54  36  50 W10       30.05R
FAITH            N/A     61  37  41 W15       30.08S
MOBRIDGE       CLEAR     64  47  53 W13       29.95S
$$

SDZ012>016-024>037-041>051-057-063-072>074-290700-
SOUTHWEST AND SOUTH CENTRAL SOUTH DAKOTA

CITY           SKY/WX    TMP DP  RH WIND       PRES   REMARKS
RAPID CTY ARPT CLEAR     53  45  74 NW6       30.17S
PIERRE         CLEAR     66  46  48 W10       30.06R
CUSTER         CLEAR     54  32  43 W5        30.28R
PHILIP         CLEAR     55  49  80 W6        30.13R
PINE RIDGE     CLEAR     49  43  80 CALM      30.22R
SPEARFISH      FAIR      55  37  50 W9        30.22R
WINNER         FAIR      63  49  60 W9        30.12R
$$

SDZ004>011-016>023-039-040-290700-
NORTHEAST SOUTH DAKOTA

CITY           SKY/WX    TMP DP  RH WIND       PRES   REMARKS
ABERDEEN       CLEAR     63  49  60 SW13      29.95R
WATERTOWN      CLEAR     61  52  72 SW9       29.98S
BROOKINGS      CLEAR     63  52  67 SW7       30.06S
SISSETON         N/A     67  48  50 W13       29.89S
$$

SDZ017-020-022-023-036>040-048>070-290700-
SOUTHEAST SOUTH DAKOTA

CITY           SKY/WX    TMP DP  RH WIND       PRES   REMARKS
SIOUX FALLS    CLEAR     62  56  80 W6        30.06R
HURON          CLEAR     63  51  65 SW8       30.02R
CHAMBERLAIN    CLEAR     62  50  65 W7        30.09R
MITCHELL       CLEAR     63  53  70 SW5       30.06R
YANKTON        CLEAR     64  54  68 NW6       30.07R
$$

ABBREVIATIONS USED IN REMARKS
   TC - TEMPERATURE IN CELSIUS
  WCI - WIND CHILL INDEX
   HX - HEAT INDEX
  VSB - VISIBILITY




USA.gov is the U.S. government's official web portal to all federal, state and local government web resources and services.